Погода в Мачехах

Украина / Полтавская область     49°31′15″N   34°25′38″E
темп.,
°C
ветер,
м/с
пор.,
м/с
влажн.,
%
обл.,
%
осадки,
мм/ч
давл.,
гПа
погр.,
м
17 апреля, сб
сб1700:00+4ю35855 0.0 1016143
03:00+3ююв3689100 0.0 1017276
06:00+5ю3683100 0.1 1017591
09:00+5ю3589100 0.4 1018661
12:00+6ююз3490100 0.1 1020784
15:00+6юз4790100 0.6 1020763
18:00+8зюз3575100 0.1 1019884
21:00+6з2285100 0.3 102050
18 апреля, вс
вс1800:00+6зюз118991 0.0 102021
03:00+4ююз349128 0.0 101965
06:00+5ююз2487100 0.0 1019112
09:00+7ююз2477100 0.0 1019237
12:00+12юз465744 0.0 10181454
15:00+12зюз3554100 0.1 10171435
18:00+11юз0165100 0.0 101617
21:00+10ю0068100 0.0 101710
19 апреля, пн
пн1900:00+9ссз1172100 0.0 101716
03:00+8ссз338199 0.0 101753
06:00+7с2387100 0.0 101789
09:00+9св2281100 0.0 1017246
12:00+12ссв2164100 0.0 1016735
15:00+16ююв0247100 0.1 10151751
18:00+14с335882 0.2 1014536
21:00+10ссв4774100 0.4 1014157
20 апреля, вт
вт2000:00+9св3577100 0.0 1012104
03:00+9всв4873100 0.0 1010194
06:00+10всв71473100 0.0 1007513
09:00+10всв81477100 0.6 1005922
12:00+9св101791100 7.8 10001115
15:00+8всв71393100 15.3 996701
18:00+8с4795100 10.4 994438
21:00+7сз4695100 15.3 995361
21 апреля, ср
ср2100:00+5зсз7893100 3.0 998990
03:00+5з71296100 3.9 10021141
06:00+6з81289100 0.6 10061005
09:00+6з71082100 0.6 10101000
12:00+7зюз6975100 0.0 10131001
15:00+9зюз5871100 0.0 10151281
18:00+9юз467498 0.1 1016817
21:00+8ююз2380100 0.2 101865